Temperature
10 10 10 10 10 10 9 9 9 10 10 10 9 9 9 9 9 9 9 10 10 10 10 10 10 10 10 10 11 11 11 11 11 11 11 11 11 11
10 10 9 9 9 9 9 9 9 9 9 9 9 9 9 9 9 9 9 9 9 10 10 10 10 10 10 10 10 10 11 11 11 10 10 10 11 11
9 9 9 9 9 9 9 9 9 9 9 9 9 9 9 9 9 9 9 9 9 9 9 10 10 10 10 10 10 10 10 10 10 10 10 10 10 10
9 9 9 9 9 9 9 9 9 9 9 9 9 8 8 8 8 8 8 8 8 9 9 9 9 10 10 10 10 10 10 10 10 10 10 10 10 10
9 9 9 8 8 8 8 8 8 8 8 8 8 8 8 8 8 8 8 8 8 9 9 9 9 9 9 9 10 10 10 10 10 10 10 10 10 10
9 8 8 8 8 8 8 8 8 8 8 8 8 8 8 8 8 8 8 8 8 8 9 9 9 9 9 9 9 9 9 9 9 10 10 10 9 9
8 8 8 8 8 8 8 8 8 8 8 8 8 8 8 8 8 7 7 8 8 8 8 8 8 8 9 9 9 9 9 9 9 9 9 9 9 9
8 8 8 8 8 8 8 8 7 7 7 7 7 7 7 7 7 7 7 7 7 8 8 8 8 8 8 8 9 9 9 9 9 9 9 9 9 9
8 7 7 7 7 7 7 7 7 7 7 7 7 7 7 7 7 7 7 7 7 7 7 7 8 8 8 8 8 8 9 9 9 9 9 9 9 9
7 7 7 7 7 7 7 7 7 7 7 7 7 7 7 7 7 7 7 7 7 7 7 7 7 7 8 8 8 8 8 8 8 8 8 8 8 8
7 7 7 7 7 7 7 7 7 7 7 7 7 7 7 7 7 7 7 6 6 7 7 7 7 7 7 7 7 8 8 8 8 8 8 8 8 8
7 7 7 7 7 7 6 6 6 6 6 6 6 6 6 6 6 6 6 6 6 6 6 6 6 6 7 7 7 7 7 7 7 7 7 7 7 7
6 6 6 6 6 6 6 6 6 6 6 6 6 6 6 6 6 6 6 6 6 5 6 6 6 6 6 6 6 6 6 6 7 7 7 7 7 7
6 6 6 6 6 6 6 6 6 6 6 5 5 6 5 5 6 5 6 5 5 5 5 5 5 5 5 5 6 6 6 6 6 6 6 7 7 7
5 6 6 6 6 6 6 6 5 5 5 5 5 5 5 5 5 5 5 5 5 5 5 5 5 5 5 5 5 5 5 5 5 6 6 6 6 6
5 5 5 5 5 5 5 5 5 5 5 5 5 5 5 5 5 5 5 5 5 4 5 5 5 4 4 4 4 5 5 5 5 5 5 5 5 5
5 5 5 5 5 5 5 5 5 5 5 5 4 4 4 4 4 4 4 4 4 4 4 4 4 4 4 4 4 4 4 4 4 4 5 5 5 5
4 4 4 4 4 4 4 4 4 4 4 4 4 4 4 4 4 4 4 4 4 4 4 4 4 4 4 4 4 4 4 4 4 4 4 4 4 5
4 4 4 4 4 4 4 4 4 4 4 4 4 4 4 4 4 3 3 3 3 3 3 3 3 3 3 3 3 3 3 3 3 3 3 4 4 4
4 3 3 3 3 3 3 3 3 3 4 4 4 4 3 3 3 3 3 3 3 3 3 3 3 3 2 2 3 3 3 3 3 3 3 3 3 4
3 3 3 3 3 3 3 3 3 3 3 3 3 3 3 3 3 3 3 3 3 3 3 3 3 2 2 2 2 2 2 3 3 3 3 3 3 3
3 3 3 3 3 3 3 3 3 3 3 3 3 3 3 3 3 3 3 2 2 2 2 2 2 2 2 2 2 2 2 2 2 2 2 2 2 2
2 3 3 3 3 3 3 3 2 2 2 2 2 3 3 3 3 2 2 2 2 2 2 2 2 2 2 1 1 1 1 2 2 2 2 2 2 2
Wind_Speed
3 3 2 2 2 2 2 3 3 3 3 2 2 2 2 3 3 4 3 2 2 3 4 5 5 5 5 4 3 3 3 3 2 1 1 1 1 1
2 3 3 2 2 2 2 3 3 4 4 3 3 3 3 2 3 4 4 2 2 3 4 5 4 5 4 4 4 3 3 3 2 2 1 1 1 1
2 3 3 2 2 2 2 3 3 3 4 4 3 3 3 3 2 3 3 3 2 2 4 5 5 4 4 3 4 3 2 2 2 2 2 1 1 1
2 3 3 2 2 2 2 2 2 3 3 4 4 3 3 3 3 4 3 3 3 2 4 5 5 4 3 3 3 3 2 2 2 2 2 2 2 1
2 2 3 2 3 2 2 2 2 2 2 3 3 3 3 3 3 4 4 3 4 3 4 4 4 4 4 4 2 2 2 2 2 3 3 3 2 2
2 2 2 2 3 3 2 2 2 2 2 2 3 3 3 3 3 3 4 3 4 3 3 3 3 4 5 4 3 3 3 3 3 3 4 4 4 3
2 2 2 3 4 4 3 3 2 2 2 2 2 3 3 3 3 3 4 4 4 3 3 3 3 3 3 3 3 3 4 4 4 4 5 4 4 4
2 2 2 2 2 2 3 4 4 3 3 2 2 3 4 3 3 4 4 4 4 2 4 4 3 3 3 3 1 1 3 4 5 5 5 5 5 4
2 2 2 2 2 2 2 3 3 3 4 3 4 4 4 4 4 4 5 5 5 3 3 4 4 4 3 2 1 1 2 4 4 5 5 5 5 5
2 2 2 2 2 3 3 2 2 2 2 3 3 4 4 4 4 5 5 5 4 2 3 4 4 4 4 3 1 2 3 3 4 4 4 4 4 5
2 2 2 2 4 4 2 2 2 2 1 3 4 4 4 4 4 3 2 3 4 3 2 3 3 4 4 3 1 2 3 4 4 4 4 4 4 5
1 1 2 3 4 3 2 2 2 2 2 2 2 2 2 1 2 2 2 3 4 3 2 2 3 3 3 2 2 2 2 2 4 4 5 5 5 4
2 2 1 3 3 3 3 2 3 3 2 2 1 1 1 2 2 2 3 3 3 3 2 2 3 3 3 4 4 3 2 2 2 3 3 5 5 5
3 2 1 1 2 3 2 2 3 3 2 1 1 1 2 2 2 3 3 3 3 4 4 3 3 3 4 5 4 3 3 3 3 3 3 3 5 6
3 2 2 1 2 2 1 2 2 2 1 1 2 2 2 2 2 2 3 3 3 3 4 4 4 4 4 5 5 4 4 4 3 3 3 3 3 3
2 1 2 2 2 2 1 1 1 2 2 2 2 2 2 2 2 2 2 2 3 3 3 4 4 5 4 5 5 5 4 3 3 4 4 3 3 4
2 2 2 1 1 1 2 2 2 2 2 2 3 2 2 2 2 2 3 3 3 4 3 3 3 4 4 4 4 4 4 4 4 4 4 4 3 3
2 3 2 2 3 2 2 2 2 2 3 3 3 3 3 3 3 2 3 3 3 4 4 3 3 3 3 3 3 5 4 4 4 4 4 4 4 4
3 3 3 3 3 3 3 3 3 3 3 3 4 4 3 3 3 3 3 3 4 4 4 3 3 3 4 5 3 3 4 5 4 4 4 4 5 5
3 3 3 3 3 3 3 3 3 3 3 4 4 4 4 4 4 4 4 4 4 4 4 4 4 4 5 6 5 5 5 5 4 5 4 4 4 4
3 4 4 4 4 4 4 4 4 3 3 4 4 4 4 4 4 4 4 4 5 5 5 4 4 5 5 5 5 5 4 4 5 5 5 4 4 4
4 4 4 4 4 4 4 4 4 4 4 4 4 4 4 5 5 5 5 5 5 5 5 4 3 3 4 5 6 6 6 4 3 5 5 5 3 4
4 4 4 5 5 4 4 4 5 5 5 4 4 5 5 5 5 5 5 5 5 5 5 4 4 3 4 5 6 5 6 5 3 3 3 3 3 4
Wind_Direction
287 290 284 284 284 290 279 274 284 295 307 317 328 342 347 345 354 332 335 25 4 350 346 341 345 348 342 336 342 349 347 350 349 318 31 42 39 24
300 301 305 301 304 292 281 280 277 279 288 312 316 323 338 334 338 328 338 4 330 330 331 332 335 337 343 344 336 346 345 348 351 347 347 9 353 322
317 317 312 314 303 295 288 281 275 272 277 299 308 314 316 314 326 317 323 313 313 317 314 318 316 317 320 340 344 336 328 337 338 333 325 316 313 315
314 314 314 312 295 298 293 286 283 274 271 291 301 305 304 305 310 309 314 310 305 324 300 302 303 305 302 319 330 336 332 320 321 316 320 293 267 256
307 302 304 304 297 297 287 285 284 283 281 285 296 301 297 305 305 305 306 306 301 301 280 274 283 289 286 287 297 314 318 295 293 301 299 288 254 237
294 296 295 291 296 304 294 290 285 280 279 283 293 297 298 307 300 302 303 297 296 302 298 297 283 266 262 261 273 286 289 281 271 279 278 270 239 232
293 303 318 330 340 328 309 303 297 284 274 274 277 285 293 303 303 300 303 301 296 304 304 297 283 276 265 246 252 274 275 273 265 267 266 252 230 226
292 298 303 298 325 317 323 317 307 292 286 275 267 271 277 289 295 295 300 301 298 314 301 297 292 290 287 286 2 274 279 280 268 263 255 239 225 224
291 297 296 289 286 293 281 271 288 294 286 278 276 279 283 292 291 293 294 296 298 308 297 291 293 290 296 310 94 222 282 295 281 262 250 237 226 222
287 281 293 296 303 308 298 298 305 305 291 285 289 293 301 305 295 286 289 294 295 306 299 288 298 296 300 298 165 209 259 282 281 262 251 234 228 231
304 316 309 304 333 317 292 282 278 286 343 318 321 325 338 331 316 293 303 299 296 298 307 287 293 303 294 279 232 191 246 255 267 265 254 241 232 236
291 307 356 336 337 323 271 274 281 295 297 295 296 294 300 314 304 295 298 293 296 296 335 309 305 316 298 283 296 302 283 266 267 266 249 239 226 233
277 285 316 354 346 332 306 300 320 307 285 287 291 308 324 336 331 318 313 295 289 286 314 299 293 298 286 294 300 299 302 309 300 279 245 225 221 229
275 276 295 335 328 319 307 352 340 307 292 294 302 317 322 331 331 330 325 311 301 294 295 287 279 287 287 292 297 308 314 312 309 300 293 235 224 227
281 316 310 275 267 272 329 325 287 281 284 285 296 306 311 313 316 323 325 321 309 304 299 285 277 279 277 282 295 300 306 309 304 307 304 281 261 244
270 254 233 238 247 284 272 255 269 288 284 280 290 297 302 304 301 307 307 309 305 301 303 301 293 282 277 283 287 293 302 303 313 312 305 289 275 258
270 253 257 249 255 266 269 270 264 264 268 277 283 286 287 293 300 304 299 297 294 303 314 318 308 289 277 280 280 286 295 298 299 300 297 291 282 276
253 246 248 245 250 258 265 268 263 262 271 273 272 276 276 278 285 289 286 284 287 293 301 308 305 291 280 274 253 276 288 294 298 295 289 283 280 286
242 248 250 248 252 258 261 265 272 273 269 270 270 269 269 270 272 274 277 279 280 283 286 289 289 287 289 297 284 231 285 293 292 287 282 279 282 283
251 255 255 257 255 255 259 264 269 276 272 269 270 271 267 265 266 267 268 273 277 276 273 272 274 278 281 289 292 291 267 278 284 283 285 287 289 295
250 255 256 255 257 258 258 260 262 265 271 272 274 276 272 266 264 266 267 267 267 270 271 274 285 290 283 283 278 283 291 274 276 281 283 280 288 289
249 253 254 255 254 256 258 258 259 262 265 264 269 272 273 273 268 265 264 265 265 267 274 279 281 278 271 272 278 285 293 301 295 291 294 281 287 285
255 255 256 255 253 253 253 253 256 260 260 261 263 266 268 268 272 271 266 264 265 266 270 273 275 273 270 270 277 282 289 297 301 298 288 275 282 306
Height
1525 1525 1524 1523 1522 1522 1521 1521 1521 1519 1518 1518 1516 1514 1513 1511 1510 1509 1508 1507 1506 1505 1504 1503 1502 1501 1500 1499 1498 1497 1498 1499 1500 1501 1501 1502 1502 1502
1523 1523 1522 1522 1521 1520 1519 1519 1518 1518 1517 1516 1515 1513 1512 1511 1510 1508 1507 1506 1505 1504 1503 1502 1501 1500 1499 1498 1497 1497 1497 1498 1499 1500 1500 1500 1501 1501
1522 1521 1520 1519 1519 1518 1517 1517 1516 1515 1514 1514 1513 1512 1511 1510 1509 1508 1506 1505 1504 1503 1502 1501 1500 1499 1498 1497 1496 1496 1497 1497 1498 1498 1499 1499 1499 1500
1520 1519 1518 1517 1517 1516 1515 1515 1514 1514 1513 1512 1512 1511 1510 1509 1507 1506 1505 1504 1503 1502 1500 1499 1498 1498 1497 1496 1496 1496 1496 1496 1497 1497 1497 1497 1498 1499
1518 1517 1516 1516 1515 1514 1514 1513 1512 1512 1512 1511 1510 1510 1509 1507 1506 1505 1504 1503 1501 1500 1499 1498 1497 1497 1496 1495 1495 1495 1495 1495 1495 1495 1496 1496 1496 1497
1516 1515 1514 1514 1513 1512 1512 1511 1511 1510 1510 1509 1509 1508 1507 1506 1505 1504 1503 1501 1500 1499 1497 1497 1496 1495 1495 1494 1494 1494 1494 1494 1494 1493 1494 1494 1494 1495
1514 1513 1512 1511 1510 1510 1509 1509 1509 1508 1508 1507 1507 1506 1505 1504 1503 1502 1501 1500 1499 1498 1496 1495 1495 1494 1493 1493 1493 1493 1492 1492 1492 1492 1491 1492 1492 1493
1511 1510 1509 1508 1508 1507 1507 1506 1506 1506 1506 1505 1505 1505 1504 1503 1502 1501 1500 1499 1498 1497 1495 1494 1493 1493 1492 1492 1491 1491 1491 1490 1490 1490 1489 1489 1490 1490
1509 1508 1507 1506 1505 1505 1504 1504 1503 1503 1503 1504 1503 1503 1502 1501 1500 1499 1498 1497 1496 1495 1494 1493 1492 1491 1491 1490 1489 1489 1488 1488 1487 1487 1487 1487 1487 1488
1506 1505 1504 1503 1502 1502 1502 1501 1501 1501 1501 1501 1501 1500 1499 1499 1498 1497 1496 1495 1494 1494 1493 1492 1491 1490 1489 1488 1487 1486 1486 1485 1485 1484 1484 1484 1484 1485
1503 1502 1502 1501 1500 1499 1499 1499 1499 1499 1499 1498 1498 1497 1497 1496 1495 1495 1494 1493 1492 1492 1491 1490 1489 1488 1487 1486 1485 1484 1483 1482 1482 1481 1481 1481 1481 1482
1500 1499 1499 1498 1497 1496 1497 1497 1496 1496 1496 1496 1496 1495 1495 1494 1493 1493 1492 1491 1491 1490 1489 1488 1487 1486 1484 1484 1483 1482 1481 1480 1479 1478 1478 1478 1478 1479
1498 1497 1496 1495 1494 1494 1494 1494 1494 1494 1494 1494 1493 1493 1492 1492 1491 1490 1490 1490 1489 1488 1487 1486 1485 1484 1483 1481 1480 1480 1479 1477 1476 1475 1475 1475 1475 1476
1496 1495 1494 1493 1493 1492 1492 1492 1492 1492 1492 1492 1491 1491 1490 1490 1489 1488 1488 1487 1487 1486 1485 1484 1483 1482 1480 1479 1478 1476 1476 1474 1473 1472 1472 1472 1472 1473
1494 1493 1492 1491 1491 1491 1490 1490 1490 1490 1490 1490 1489 1489 1488 1488 1487 1486 1485 1485 1484 1483 1482 1481 1480 1479 1478 1477 1475 1474 1472 1471 1470 1469 1469 1469 1469 1469
1491 1490 1489 1489 1489 1489 1488 1488 1488 1488 1488 1488 1487 1487 1486 1485 1485 1484 1483 1482 1482 1481 1480 1479 1478 1477 1475 1474 1473 1471 1470 1469 1468 1467 1466 1465 1465 1466
1488 1488 1487 1487 1487 1487 1486 1486 1486 1486 1486 1486 1485 1484 1484 1483 1482 1482 1481 1480 1479 1478 1477 1476 1475 1474 1472 1471 1470 1469 1467 1466 1465 1464 1463 1462 1462 1462
1486 1485 1485 1485 1484 1484 1484 1484 1484 1483 1483 1483 1483 1482 1482 1481 1480 1480 1479 1478 1477 1476 1475 1473 1472 1471 1470 1469 1468 1466 1465 1463 1462 1461 1460 1459 1459 1459
1483 1483 1482 1482 1482 1482 1481 1481 1481 1480 1480 1480 1480 1480 1479 1478 1477 1477 1476 1475 1474 1473 1472 1471 1469 1468 1467 1466 1465 1464 1462 1460 1459 1458 1457 1457 1456 1455
1480 1480 1479 1479 1479 1479 1478 1478 1478 1477 1477 1477 1477 1477 1476 1475 1474 1473 1472 1471 1470 1469 1468 1467 1466 1465 1465 1464 1462 1461 1460 1458 1457 1455 1454 1454 1453 1452
1477 1476 1476 1476 1476 1476 1475 1475 1475 1474 1474 1473 1473 1473 1472 1472 1471 1470 1469 1468 1467 1466 1465 1464 1463 1462 1461 1460 1459 1458 1457 1455 1454 1453 1452 1451 1450 1449
1474 1474 1473 1473 1473 1472 1472 1472 1471 1471 1470 1470 1469 1469 1468 1468 1467 1466 1465 1465 1464 1463 1462 1461 1460 1459 1458 1457 1456 1454 1453 1452 1451 1450 1450 1449 1448 1447
1470 1470 1470 1469 1469 1469 1468 1468 1468 1467 1467 1466 1465 1465 1464 1463 1462 1462 1461 1461 1460 1459 1458 1457 1456 1455 1454 1453 1452 1451 1450 1449 1448 1447 1447 1446 1445 1444